www.pogodaiklimat.ru

Погода и климат >> Архив погоды >> Канада >> Cambridge Bay Gsn


ПОГОДА в Cambridge Bay Gsn

  • Прогноз погоды в Cambridge Bay Gsn
  • Монитор погоды в Cambridge Bay Gsn
  • Климат города

АРХИВ ПОГОДЫ в Cambridge Bay Gsn

Время (UTC), дата Ветер
(напр.,м/с)
 
Видим.   Явления Облачность Т
(С)
Тd
(С)
f
(%)
Тe
(С)
Тes
(С)
Комфортность P
(гПа)
Po
(гПа)
Тmin
(С)
Tmax
(С)
R
(мм)
R24
(мм)
S
(см)
06 12.02 СЗ 6 н/о н/о -24.4 -26.9 80 -36 -36 опасность
обморожения
1001.1 998.6 -30.6 -21.2 22
09 12.02 СЗ 7 н/о н/о -24.3 -26.7 80 -37 -37 опасность
обморожения
999.1 996.6
12 12.02 СЗ 7 н/о н/о -25.4 -27.9 80 -38 -38 опасность
обморожения
996.8 994.3 -26.2 -21.2 2
15 12.02 С 6 н/о н/о -28.4 -31.3 76 -41 -41 опасность
обморожения
995.3 992.8
18 12.02 н/о н/о -33.1 -36.5 71 995.3 992.8 -33.1 -24.2
21 12.02 С 5 н/о н/о -35.4 -39.0 69 -49 -49 опасность
обморожения
994.9 992.3
00 13.02 С 5 н/о н/о -35.4 -39.1 69 -49 -49 опасность
обморожения
995.3 992.7 -35.8 -25.4
03 13.02 СВ 8 н/о н/о -34.4 -38.0 70 -51 -51 опасность
обморожения
997.1 994.5
06 13.02 СВ 11 н/о н/о -36.0 -39.7 69 -55 -55 опасность
обморожения
999.8 997.2 -36.0 -24.2 6
09 13.02 СВ 11 н/о н/о -37.3 -41.2 67 -57 -57 опасность
обморожения
1002.5 999.9
12 13.02 СВ 11 н/о н/о -37.7 -41.7 66 -58 -58 опасность
обморожения
1005.1 1002.5 -37.9 -24.2 2
15 13.02 СВ 8 н/о н/о -38.2 -42.2 66 -56 -56 опасность
обморожения
1009.0 1006.4
18 13.02 С 7 н/о н/о -38.0 -42.0 66 -55 -55 опасность
обморожения
1011.0 1008.4 -38.3 -36.0
21 13.02 С 5 н/о {осадки} н/о -37.1 -40.9 68 -51 -51 опасность
обморожения
1013.3 1010.6 0.2
00 14.02 З 4 н/о {осадки} н/о -36.5 -40.3 68 -49 -49 опасность
обморожения
1014.4 1011.7 -38.3 -36.3 0.2
03 14.02 З 7 н/о н/о -35.1 -38.7 69 -51 -51 опасность
обморожения
1013.2 1010.6
06 14.02 З 9 н/о н/о -33.0 -36.4 71 -50 -50 опасность
обморожения
1011.6 1009.0 -38.3 -32.9 10
09 14.02 З 12 н/о н/о -33.1 -36.6 71 -52 -52 опасность
обморожения
1009.0 1006.4
12 14.02 З 12 н/о н/о -33.4 -36.8 71 -53 -53 опасность
обморожения
1006.4 1003.8 -36.5 -32.9 2
15 14.02 СЗ 8 н/о н/о -33.9 -37.4 70 -50 -50 опасность
обморожения
1003.4 1000.8
18 14.02 н/о н/о -36.4 -40.1 68 1003.4 1000.8 -38.0 -32.4
21 14.02 н/о н/о -36.2 -39.9 68 1005.0 1002.4
00 15.02 СЗ 7 н/о н/о -37.5 -41.4 67 -54 -54 опасность
обморожения
1005.3 1002.7 -37.5 -33.1
03 15.02 СЗ 5 н/о н/о -38.5 -42.6 65 -53 -53 опасность
обморожения
1005.0 1002.4
06 15.02 СЗ 5 н/о н/о -38.1 -42.1 66 -53 -53 опасность
обморожения
1004.2 1001.6 -39.0 -32.4 10
09 15.02 СЗ 3 н/о н/о -35.6 -39.3 69 -45 -45 опасность
обморожения
1003.8 1001.2
12 15.02 СЗ 4 н/о {осадки} н/о -35.3 -39.0 69 -48 -48 опасность
обморожения
1003.0 1000.4 -39.0 -32.4 0.2 2
15 15.02 СЗ 5 н/о н/о -34.5 -38.0 70 -48 -48 опасность
обморожения
1002.9 1000.3
18 15.02 СЗ 5 н/о н/о -31.6 -34.7 74 -44 -44 опасность
обморожения
1001.8 999.2 -39.0 -31.6
21 15.02 СЗ 4 н/о н/о -27.9 -30.8 76 -38 -38 опасность
обморожения
1000.5 997.9
00 16.02 СЗ 2 н/о н/о -26.6 -29.3 78 -34 -34 опасность
обморожения
999.2 996.6 -38.1 -26.5
03 16.02 СЗ 5 н/о н/о -28.1 -30.9 77 -40 -40 опасность
обморожения
997.1 994.5
06 16.02 С 4 н/о н/о -30.1 -33.1 75 -41 -41 опасность
обморожения
996.3 993.7 -38.1 -26.5
09 16.02 СВ 4 н/о н/о -33.4 -37.0 70 -46 -46 опасность
обморожения
997.3 994.7
12 16.02 СВ 4 н/о н/о -36.1 -39.9 68 -49 -49 опасность
обморожения
999.4 996.8 -36.1 -26.5 3
15 16.02 СВ 4 н/о н/о -36.6 -40.4 68 -50 -50 опасность
обморожения
1001.7 999.1
18 16.02 СВ 6 н/о н/о -38.2 -42.2 66 -54 -54 опасность
обморожения
1004.5 1001.9 -38.3 -29.9
21 16.02 СВ 6 н/о н/о -38.4 -42.4 66 -54 -54 опасность
обморожения
1007.1 1004.5
00 17.02 СВ 5 н/о н/о -39.0 -43.2 64 -53 -53 опасность
обморожения
1009.8 1007.2 -39.0 -36.1
03 17.02 С 2 н/о н/о -37.6 -41.5 67 -45 -45 опасность
обморожения
1011.4 1008.8
06 17.02 З 1 н/о н/о -38.6 -42.6 66 -40 -40 опасность
обморожения
1012.4 1009.7 -39.1 -29.9
09 17.02 В 2 н/о н/о -40.3 -44.6 63 -50 -50 опасность
обморожения
1013.4 1010.7
12 17.02 штиль 0 н/о н/о -41.9 -46.3 62 -42 -42 опасность
обморожения
1014.5 1011.8 -41.9 -29.9 2
15 17.02 СВ 2 н/о н/о -44.1 -48.7 60 -52 -52 опасность
обморожения
1015.5 1012.8
18 17.02 В 2 н/о {осадки} н/о -43.5 -48.1 60 -52 -52 опасность
обморожения
1016.9 1014.2 -44.2 -38.6 0.4
21 17.02 В 1 н/о н/о -42.0 -46.4 62 -48 -48 опасность
обморожения
1018.7 1016.0 0.5
00 18.02 В 1 н/о н/о -43.1 -47.7 60 -49 -49 опасность
обморожения
1019.8 1017.1 -44.2 -41.9 0.5
03 18.02 В 1 н/о н/о -42.6 -47.1 61 -45 -45 опасность
обморожения
1020.1 1017.4
06 18.02 В 1 н/о н/о -42.1 -46.6 61 -44 -44 опасность
обморожения
1019.8 1017.1 -44.2 -38.6
09 18.02 штиль 0 н/о н/о -40.4 -44.7 63 -40 -40 опасность
обморожения
1018.6 1015.9
12 18.02 В 2 н/о н/о -36.9 -40.7 68 -46 -46 опасность
обморожения
1017.6 1014.9 -43.2 -38.6 3
15 18.02 В 2 н/о н/о -34.1 -37.7 70 -41 -41 опасность
обморожения
1016.0 1013.3 0.2
18 18.02 Ю 3 н/о н/о -33.3 -36.8 71 -44 -44 опасность
обморожения
1015.8 1013.1 -43.5 -33.3 0.2
21 18.02 ЮВ 2 н/о н/о -33.6 -37.1 71 -42 -42 опасность
обморожения
1016.6 1013.9
00 19.02 ЮВ 4 н/о н/о -36.9 -40.9 66 -50 -50 опасность
обморожения
1017.7 1015.0 -42.1 -32.9
03 19.02 В 3 н/о н/о -39.3 -43.4 65 -50 -50 опасность
обморожения
1019.5 1016.8

 

Местоположение метеостанции Cambridge Bay Gsn (Канада): широта 69.10 долгота -105.10 высота над уровнем моря 19 м.

В архиве по умолчанию представлена погода в Cambridge Bay Gsn за последнюю неделю. Архивные данные за месяц целиком и за предыдущие месяцы, начиная с января 2011 года, Вы можете получить, выбрав интересующий диапазон дат из раскрывающегося списка и нажав кнопку "Ввод!".

Внимание! Время в таблицах - всемирное. Для получения местного времени необходимо прибавить поправку, которая в Cambridge Bay Gsn равна -7 ч.

Смотрите также архив погоды в соседних городах и на ближайших метеорологических станциях:

Погода в Cape Peel West (Канада) (108 км)
Погода в Hat Island (Канада) (223 км)
Погода в Gjoa Haven Climate (Канада) (374 км)
Погода в Kugluktuk (Канада) (432 км)
Погода в Kugluktuk Airport (Канада) (432 км)
Погода в Lupin (Канада) (452 км)
Погода в Lupin (maps) (Канада) (452 км)
Погода в Spence bay (Канада) (454 км)
Погода в Robertson Lake (Канада) (460 км)
Погода в Shepherd Bay (Канада) (466 км)

Пояснения к столбцам:

Ветер - указаны скорость ветра в м/с - средняя за 10 мин, порывы в срок и между сроками (в фигурных скобках) и направление, откуда дует ветер: С - северный, СВ - северо-восточный, В - восточный, ЮВ - юго-восточный, Ю - южный, ЮЗ - юго-западный, З - западный, СЗ - северо-западный.
Видимость - горизонтальная дальность видимости в метрах или километрах. При видимости от 1 до 10 км при отсутствии осадков обычно наблюдается дымка, при ухудшении видимости до 1 км и менее - туман. В сухую погоду видимость может ухудшаться дымом, пылью или мглою.
Явления - указаны атмосферные явления, наблюдавшиеся в срок или в последний час перед сроком; фигурными скобками обозначены явления, наблюдавшиеся между сроками (за 1-3 часа до срока); квадратными скобками обозначены град или гололедные отложения с указанием их диаметра в мм.
Облачность - указаны через наклонную черту общая и нижняя облачность в баллах и высота нижней границы облаков в метрах; квадратными скобками обозначены формы облаков: Ci - перистые, Cs - перисто-слоистые, Cc - перисто-кучевые, Ac - высококучевые, As - высокослоистые, Sc - слоисто-кучевые, Ns - слоисто-дождевые, Cu - кучевые, Cb - кучево-дождевые. Подробнее классификацию облаков см. в Атласе облаков (PDF).
T - Температура воздуха - температура, измеренная на высоте 2 м над землей.
Td - Температура точки росы - температура, при понижении до которой содержащийся в воздухе водяной пар достигнет насыщения.
f - Относительная влажность воздуха - влажноcть воздуха, измеренная на высоте 2 м над землей.
Te - Эффективная температура - температура, которую ощущает одетый по сезону человек в тени. Характеристика душности погоды. При расчете учитывается влияние влажности воздуха и скорости ветра на теплоощущения человека.
Tes - Эффективная температура на солнце - температура, которую ощущает человек, с поправкой на солнечный нагрев. Характеристика знойности погоды. Зависит от высоты солнца над горизонтом, облачности и скорости ветра. Ночью, в пасмурную погоду, а также при ветре 12 м/с и более поправка равна нулю.
P - Атмосферное давление - приведенное к уровню моря атмосферное давление.
Po - Атмосферное давление - измеренное на уровне метеостанции атмосферное давление.
Tmin - Минимальная температура - минимум температуры воздуха на высоте 2 м над землей.
Tmax - Максимальная температура - максимум температуры воздуха на высоте 2 м над землей.
R - Количество осадков - Количество выпавших осадков за период времени, мм. При наведении курсора мыши на число - период времени, за который выпало указанное количество осадков.
R24 - Количество осадков - Количество выпавших осадков за 24 часа, мм.
S - Снежный покров - Высота снежного покрова, см. При наведении курсора мыши на число - состояние снежного покрова и степень покрытия местности в баллах.